This is the latest recevied weather packets stored in our database for station/object EB2BAG-11. If no packets are shown the sender has not sent any weather packets the latest 10 day(s).
| Time | Temp. | Humidity | Pressure | Rain* | Wind** | Luminosity | Snow |
|---|---|---|---|---|---|---|---|
| 1777637739 | 27.22° C | 41% | 1019.3 hPa | - | - | - | - |
| 1777636539 | 26.67° C | 40% | 1019.4 hPa | - | - | - | - |
| 1777635339 | 26.67° C | 41% | 1019.5 hPa | - | - | - | - |
| 1777634139 | 26.11° C | 40% | 1019.4 hPa | - | - | - | - |
| 1777632939 | 26.11° C | 42% | 1019.7 hPa | - | - | - | - |
| 1777631739 | 25° C | 49% | 1019.8 hPa | - | - | - | - |
| 1777630539 | 24.44° C | 56% | 1020.2 hPa | - | - | - | - |
| 1777629339 | 23.33° C | 62% | 1020.5 hPa | - | - | - | - |
| 1777628139 | 20° C | 71% | 1020.8 hPa | - | - | - | - |
| 1777626938 | 20.56° C | 74% | 1020.9 hPa | - | - | - | - |
| 1777625738 | 20° C | 73% | 1021 hPa | - | - | - | - |
| 1777624538 | 20.56° C | 71% | 1020.9 hPa | - | - | - | - |
| 1777623338 | 19.44° C | 73% | 1021 hPa | - | - | - | - |
| 1777622138 | 18.33° C | 76% | 1021.2 hPa | - | - | - | - |
| 1777620938 | 17.78° C | 78% | 1021.4 hPa | - | - | - | - |
| 1777619738 | 16.67° C | 82% | 1021.5 hPa | - | - | - | - |
| 1777618538 | 17.22° C | 80% | 1021.3 hPa | - | - | - | - |
| 1777617338 | 16.67° C | 83% | 1021.3 hPa | - | - | - | - |
| 1777616138 | 16.11° C | 82% | 1021.2 hPa | - | - | - | - |
| 1777614938 | 16.11° C | 81% | 1021.1 hPa | - | - | - | - |
| 1777613738 | 16.11° C | 79% | 1021 hPa | - | - | - | - |
| 1777612537 | 15.56° C | 81% | 1021.1 hPa | - | - | - | - |
| 1777611337 | 15.56° C | 81% | 1020.9 hPa | - | - | - | - |
| 1777610137 | 15.56° C | 83% | 1020.7 hPa | - | - | - | - |
| 1777608937 | 16.11° C | 80% | 1020.7 hPa | - | - | - | - |
* Rain since midnight (hover to see other rain measurements)
** Current wind speed in m/s (hover to see current wind gust speed)